Overview Statistics Trail Chart Weather Telemetry Raw packets
 

This is the latest recevied weather packets stored in our database for station/object K3RUP-1. If no packets are shown the sender has not sent any weather packets the latest 10 day(s).

<< 4 5 6 7 8 9 10 >>
Time Temp. Humidity Pressure Rain* Wind** Luminosity Snow
1788662474 20° C 89% 1012 hPa 0 mm - 0 W/m² -
1788662170 20° C 88% 1012.2 hPa 0 mm - 0 W/m² -
1788661869 20° C 88% 1012 hPa 0 mm - 0 W/m² -
1788661565 20° C 87% 1011.8 hPa 0 mm - 0 W/m² -
1788661261 20.56° C 87% 1011.7 hPa 0 mm - 0 W/m² -
1788660956 20.56° C 86% 1011.7 hPa 0 mm - 0 W/m² -
1788660655 20.56° C 86% 1011.8 hPa 0 mm - 0 W/m² -
1788660354 20.56° C 86% 1011.8 hPa 0 mm - 0 W/m² -
1788660054 20.56° C 84% 1011.7 hPa 0 mm - 0 W/m² -
1788659748 20.56° C 84% 1011.6 hPa 0 mm - 0 W/m² -
1788659448 21.11° C 84% 1011.5 hPa 0 mm - 0 W/m² -
1788659143 21.11° C 83% 1011.3 hPa 0 mm - 0 W/m² -
1788658838 21.11° C 84% 1011.5 hPa 0 mm - 0 W/m² -
1788658533 21.11° C 84% 1011.3 hPa 0 mm - 0 W/m² -
1788658229 21.11° C 83% 1011.4 hPa 0 mm - 0 W/m² -
1788657924 21.67° C 82% 1011.5 hPa 0 mm - 0 W/m² -
1788657623 21.67° C 81% 1011.3 hPa 0 mm - 0 W/m² -
1788657320 21.67° C 81% 1011.4 hPa 0 mm - 0 W/m² -
1788657019 21.67° C 80% 1011.1 hPa 0 mm - 0 W/m² -
1788656715 22.22° C 80% 1011.3 hPa 0 mm - 0 W/m² -
1788656411 22.22° C 79% 1011 hPa 0 mm - 0 W/m² -
1788656110 22.22° C 78% 1011.1 hPa 0 mm - 0 W/m² -
1788655809 22.22° C 80% 1011.3 hPa 0 mm - 0 W/m² -
1788655503 22.78° C 82% 1011.1 hPa 0 mm - 0 W/m² -
1788655198 22.78° C 78% 1011.1 hPa 0 mm - 0 W/m² -

* Rain latest hour (hover to see other rain measurements)
** Current wind speed in m/s (hover to see current wind gust speed)